Погода в Бресте

Поиск расширенной информации на нашем сайте:

Полезная информация:

Новости сайта



14.11.2019
Обновлён Долгосрочный прогноз погоды по России и другим странам хСССР на ноябрь-декабрь 2019 года.
Опубликованы прогностические карты: Предварительный прогноз на декабрь 2019 года, Предварительный прогноз на январь 2020 года, Предварительная схема синоптических процессов на декабрь 2019 г..

11.11.2019
Обновлены Долгосрочный прогноз погоды по России и другим странам хСССР на ноябрь-декабрь 2019 года и Предварительный прогноз на зиму 2019/2020 годов

04.11.2019
Опубликован Долгосрочный прогноз погоды по России и другим странам хСССР на ноябрь 2019 года
Сравнение прогнозируемой аномалии приземной температуры воздуха на ноябрь 2019 года по разным моделям
Предварительный прогноз на зиму 2019/2020 года




Погода в Бресте - сегодня

Время (UTC), дата Ветер
(°,м/с) 
Видим.   Явления Облачность Т
(°С)
Тd
(°С)
f(%) Тe
(°С)
Pmin
(гПа)
dP
(гПа)
Po
(мм)
O2
(г/м3)
Тmin Tmax R s Состояние
почвы
00 18.11.19 120 (ЮВ) 20000 м    9/9 630 м 
[Sc]
+10.6 +8.2 85 +12  1018.5  -0.9  751  290           
03 18.11.19 120 (ЮВ) 20000 м    9/9 500 м 
[Sc]
+10.3 +7.5 83 +10  1018.1  -0.5  750  290           
06 18.11.19 130 (ЮВ) 15000 м    10/10 420 м 
[Sc]
+9.3 +6.9 85 +9  1017.8  -0.3  750  291  +8.6         
09 18.11.19 140 (ЮВ) 4{10}  15000 м    10/10 360 м 
[Sc]
+8.8 +6.2 84 +8  1018.3  0.4  750  292           
12 18.11.19 140 (ЮВ) 10 км    10/10 330 м 
[Sc]
+8.7 +6.5 86 +8  1017.4  -0.8  750  292           
15 18.11.19 160 (Ю) 12000 м    10/10 540 м 
[Sc]
+9.7 +6.4 80 +10  1017.8  0.4  750  291           
18 18.11.19 140 (ЮВ) 15000 м    4/4 300 м 
[Sc]
+8.7 +6 83 +8  1018.1  0.2  750  292    +9.8       
21 18.11.19 110 (В) 12000 м    8/8 2000 м 
[Sc]
+7.2 +5.5 89 +6  1019  0.8  751  294           
00 19.11.19 130 (ЮВ) 10 км    9/9 1260 м 
[Sc]
+7 +5.6 91 +7  1020.8  1.8  752  295           
03 19.11.19 170 (Ю) 8000 м  дымка  ясно 
+6.8 +5.7 93 +8  1022.1  1.2  753  295           
06 19.11.19 тихо ()   1500 м  дымка  4/0 средняя 
[Ac trans]
+3.7 +3.3 97 +4  1023.9  1.6  754  299  +3.7         
09 19.11.19 120 (ЮВ) 4300 м  в посл. час туман  4/0 средняя, верхняя 
[Ac trans|Ci fib]
+6.7 +6.4 98 +8  1024.9  1.2  755  296           
12 19.11.19 100 (В) 6000 м  дымка{туман}  3/0 верхняя 
[Cs]
+8.5 +6.6 88 +9  1025  0.2  755  294           
15 19.11.19 110 (В) 0300 м  туман  ?/?  
+6.4 +6.4 100 +6  1025.7  0.5  756  296           
18 19.11.19 090 (В) 0400 м  туман  ?/?  
+5.8 +5.8 100 +6  1026.2  0.5  756  297    +11.1       
21 19.11.19 110 (В) 0400 м  туман  ?/?  
+5.8 +5.8 100 +7  1026.6  0.4  756  297           
00 20.11.19 120 (ЮВ) 3800 м  в посл. час туман  10/10 150 м 
[St]
+6.4 +6.3 99 +6  1026.3  -0.3  756  297           
03 20.11.19 110 (В) 4400 м  дымка  10/10 100 м 
[St]
+6.5 +6.3 99 +5  1025.8  -0.4  756  296           
06 20.11.19 110 (В) 4000 м  слаб. морось  10/10 60 м 
[St]
+6.4 +6.2 99 +5  1026.4  0.5  756  297  +5.5    0.0     
09 20.11.19 100 (В) 5000 м  слаб. морось  10/10 100 м 
[St]
+6.9 +6.7 99 +6  1026.5  0.2  756  296           
12 20.11.19 100 (В) 5000 м  в посл. час морось  10/10 100 м 
[St]
+7.9 +7.4 97 +7  1025.7  -0.7  756  295           
15 20.11.19 100 (В) 4800 м  в посл. час морось  10/10 100 м 
[St]
+8.3 +7.8 97 +7  1025.2  -0.5  755  294      0.0     
18 20.11.19 090 (В) 4{10}  8000 м  в посл. час морось  10/10 120 м 
[St]
+8.1 +7.8 98 +7  1025.1  -0.1  755  294    +8.4  0.0     
21 20.11.19 110 (В) 5{10}  8000 м  дымка  10/10 120 м 
[St]
+7.7 +7.6 99 +6  1025.1  -0.1  755  295           
00 21.11.19 100 (В) 6-12{11}  15000 м    10/10 180 м 
[St]
+6.9 +5.8 93 +5  1025.3  0.2  755  296           
Время (UTC), дата Ветер
(°,м/с) 
Видим.   Явления Облачность Т
(°С)
Тd
(°С)
f(%) Тe
(°С)
Pmin
(гПа)
dP
(гПа)
Po
(мм)
O2
(г/м3)
Тmin Tmax R s Состояние
почвы

Для получения пояснительной информации подведите курсор к названию столбца.

ПОГОДА в Бресте - архив

Всё, что Вы хотите узнать о погоде в Бресте - удобно и подробно!

Выберите нужную дату (начиная с 1 января 2019* года) и нажмите кнопку "Найти".
Будут отображены архивные сводки погоды по пункту Брест, начиная с указанной даты.


Отображать данные в формате CSV (для использования в таблицах Excel)


Внимание! Наш архив погоды предназначен исключительно для личного некоммерческого использования в познавательных целях. Если Вам необходимы официальные справки о состоянии погоды (для производственных, юридических, коммерческих и т.п. целей), обращайтесь в органы Росгидромета.

*Примечание: данная дата относится к архиву по метеостанциям СССР (Россия, СНГ, Балтия).
Архив по метеостанциям Зарубежной Европы и Азии (кроме Китая) хранится 10 дней, по другим регионам земного шара (Китай, Африка, Америка, Австралия, Океания) - 1 день.

Брест - район местоположения метеостанции


Название, широта, долгота, высота метеостанции:
Брест 52.1°ш. 23.7°д. 146 м над ур. моря [Беларусь]

Дополнительная информация

В oтличие oт бoльшинства пoгoдных сайтoв мы публикуем пoдрoбную метеoинфoрмацию в детальнoм прoфессиoнальнoм фoрмате.

Характеристики температуры и влажнoсти вoздуха измеряются на высoте 2 м в тени вдали oт зданий и деревьев.
Скoрoсть ветра измеряется на высoте 10 м (на урoвне рoста челoвека скoрoсть ветра ниже в 1.5-2 раза). Если метеoстанция нахoдится в гoрoде или в лесу, тo скoрoсть ветра занижена на 2-4 м/с пo сравнению с oткрытым местoм. Скoрoсть ветра над акватoриями крупных рек и oзёр, а также на вершинах хoлмoв на 2-5 м/с выше, чем в oбычных услoвиях.
Атмoсфернoе давление в разных тoчках местнoсти мoжет значительнo oтличаться oт давления на метеoстанции, в зависимoсти oт услoвий рельефа (при пoдъёме на 10 м давление пoнижается примернo на 1 мм рт.ст.).